Tracking 33203 objects as of 15-Feb-2026
HD Live streaming from Space Station
objects crossing your sky now

DELTA 1 DEB

Track DELTA 1 DEB now!
10-day predictions


NORAD ID: 40765
Int'l Code: 1976-077GJ
Perigee: 1,469.3 km
Apogee: 1,512.3 km
Inclination: 102.2 °
Period: 115.6 minutes
Semi major axis: 7861 km
RCS: Unknown
Launch date: July 29, 1976
Source: United States (US)
Launch site: AIR FORCE WESTERN TEST RANGE (AFWTR)

Note: This is SATELLITE DEBRIS
Your satellite tracking list
Your tracking list is empty




NASA's NSSDC Master Catalog

Two Line Element Set (TLE):
1 40765U 76077GJ  26046.46169932  .00000042  00000-0  61548-3 0  9990
2 40765 102.1629  46.8104 0027356 286.9778  72.8290 12.45437187556138
Source of the keplerian elements: AFSPC